Location: Trebic
(49.2170°N, 15.8830°E)
Time: 17:01:13
(UTC+02:00)

Transit 4A - Pass Details

Date: 31 August 2019
Orbit: 865 x 980 km, 66.8° (Epoch: 21 September)

Event Time Altitude Azimuth Distance (km) Brightness Sun altitude
Rises 19:32:19 0° 265° (W) 3,679 12.8 0.7°
Reaches altitude 10° 19:35:26 10° 279° (W) 2,730 12.7 0.2°
Maximum altitude 19:40:33 24° 332° (NNW) 1,880 10.2 -0.6°
Drops below altitude 10° 19:45:36 10° 25° (NNE) 2,699 10.2 -1.4°
Sets 19:48:41 0° 39° (NE) 3,630 10.7 -1.9°
